User: anonymous   Login
Location: Granada
(37.1830°N, 3.6000°W)
Time: 18:59:41
(UTC+02:00)
Language:

Iridium 70 - Orbit

View from above orbital plane
View from above orbital plane
View from above satellite
View from above satellite

Ground track
Ground track

The orbit data is extracted from the following two-line orbital elements,

1 25342U 98032A   18116.46785463 -.00000039  00000-0 -20864-4 0  9996
2 25342  86.3937  93.3580 0002382  82.7685 277.3782 14.34213756 44003
Epoch (UTC): 26 April 2018 11:13:42
Eccentricity: 0.0002382
inclination: 86.3937°
perigee height: 776 km
apogee height: 779 km
right ascension of ascending node: 93.3580°
argument of perigee: 82.7685°
revolutions per day: 14.34213756
mean anomaly at epoch: 277.3782°
orbit number at epoch: 4400

The dashed part of the orbit path shows where the satellite is in the earth's shadow,  

DLR